This demonstration page uses our WeatherBlox Daily Observations layout. Learn more.

Left ArrowRight Arrow

Hourly Observations for May 23, 2022

Temp ( °F °C ) Dew Point ( °F °C ) Humidity (%) Winds ( mph kmh ) Pressure ( in mb ) Visibility ( mi km ) Precip ( " mm )
12:53 am 00:53 Mostly Cloudy 43 6.1 30 -1.1 60 60 NE 9 15 29.88 1012 10 16 0.00 0.00
1:53 am 01:53 Mostly Cloudy 44 6.7 31 -0.6 60 60 N 6 9 29.86 1011 10 16 0.00 0.00
2:53 am 02:53 Mostly Cloudy 44 6.7 30 -1.1 58 58 N 8 13 29.89 1012 10 16 0.00 0.00
3:53 am 03:53 Mostly Cloudy 39 3.9 31 -0.6 73 73 NE 10 17 29.92 1013 10 16 0.00 0.00
4:53 am 04:53 Cloudy 40 4.4 32 0 73 73 Calm 29.96 1015 10 16 0.00 0.00
5:37 am 05:37 Cloudy 38 3.3 32 0 79 79 ENE 7 11 30.08 1018 10 16 0.00 0.00
5:53 am 05:53 Cloudy 38 3.3 32 0 79 79 NE 8 13 29.97 1015 10 16 0.00 0.00
6:53 am 06:53 Sunny 39 3.9 31 -0.6 73 73 ENE 3 6 30.00 1016 10 16 0.00 0.00
7:53 am 07:53 Mostly Sunny 42 5.6 29 -1.7 60 60 NE 9 15 30.01 1016 10 16 0.00 0.00
8:53 am 08:53 Cloudy 46 7.8 29 -1.7 51 51 ENE 14 22 30.01 1016 10 16 0.00 0.00
9:53 am 09:53 Cloudy 48 8.9 29 -1.7 48 48 NE 14 22 30.01 1016 10 16 0.00 0.00
10:53 am 10:53 Mostly Cloudy 46 7.8 27 -2.8 47 47 VRB 5 7 30.00 1016 10 16 0.00 0.00
11:53 am 11:53 Mostly Cloudy 50 10 27 -2.8 41 41 undefined N/A 30.00 1016 10 16 0.00 0.00
12:53 pm 12:53 Mostly Cloudy 50 10 26 -3.3 39 39 N 8 13 29.98 1015 10 16 0.00 0.00
1:53 pm 13:53 Partly Cloudy 55 12.8 24 -4.4 30 30 NW 8 13 29.93 1014 10 16 0.00 0.00
2:53 pm 14:53 Partly Cloudy 55 12.8 26 -3.3 33 33 VRB 5 7 29.91 1013 10 16 0.00 0.00
3:53 pm 15:53 Partly Cloudy 53 11.7 27 -2.8 37 37 NE 15 24 29.93 1014 10 16 0.00 0.00
4:53 pm 16:53 Mostly Sunny 54 12.2 26 -3.3 34 34 NNE 14 22 29.92 1013 10 16 0.00 0.00
5:53 pm 17:53 Sunny 53 11.7 25 -3.9 34 34 N 10 17 29.92 1013 10 16 0.00 0.00
6:53 pm 18:53 Mostly Cloudy 52 11.1 26 -3.3 37 37 NNE 15 24 29.92 1013 10 16 0.00 0.00
7:53 pm 19:53 Sunny 50 10 26 -3.3 39 39 N 8 13 29.93 1013 10 16 0.00 0.00
8:53 pm 20:53 Clear 47 8.3 27 -2.8 46 46 N 10 17 29.93 1013 10 16 0.00 0.00
9:53 pm 21:53 Clear 44 6.7 28 -2.2 53 53 VRB 3 6 29.95 1014 10 16 0.00 0.00
10:53 pm 22:53 Clear 40 4.4 29 -1.7 65 65 Calm 29.97 1015 10 16 0.00 0.00
11:53 pm 23:53 Clear 37 2.8 28 -2.2 70 70 Calm 29.95 1014 10 16 0.00 0.00

Powered by AerisWeather